When you browse on this site, cookies collect data to enhance your experience and personalize the content and advertising you see.
Visit our Privacy Policy to learn more. By continuing to use the site, you agree to this use of cookies and data.
  • In Switzerland
  • List of Countries
  • For 7 days
  • Water Temperature
  • Weather Map
  • Weather Widgets
  • user-avatar
    Login

    Hourly Weather Kitzbuhel

    Today, 26 May, Tuesday

    Time Temperature Precipitation Wind Pressure Humidity
    00:00 +8°C° 0.5 mm 1 mps 686 mmHg 98%
    01:00 +8°C° 0 mm 1 mps 686 mmHg 99%
    02:00 +8°C° 0.3 mm 1 mps 686 mmHg 98%
    03:00 +7°C° 0.3 mm 1 mps 685 mmHg 97%
    04:00 +7°C° 0.3 mm 1 mps 685 mmHg 97%
    05:00 +7°C° 0.1 mm 1 mps 685 mmHg 96%
    06:00 +8°C° 0.1 mm 1 mps 685 mmHg 94%
    07:00 +9°C° 0 mm 1 mps 686 mmHg 93%
    08:00 +10°C° 0.2 mm 1 mps 686 mmHg 85%
    09:00 +10°C° 0.2 mm 2 mps 686 mmHg 78%
    10:00 +12°C° 0.2 mm 2 mps 686 mmHg 70%
    11:00 +13°C° 0.2 mm 2 mps 686 mmHg 68%
    12:00 +13°C° 0.2 mm 2 mps 686 mmHg 66%
    13:00 +13°C° 0 mm 2 mps 686 mmHg 64%
    14:00 +13°C° 0.3 mm 2 mps 686 mmHg 65%
    15:00 +13°C° 0.3 mm 2 mps 686 mmHg 67%
    16:00 +11°C° 0.3 mm 3 mps 685 mmHg 68%
    17:00 +10°C° 0.5 mm 2 mps 686 mmHg 76%
    18:00 +9°C° 0.5 mm 2 mps 686 mmHg 84%
    19:00 +9°C° 0.5 mm 1 mps 686 mmHg 93%
    20:00 +8°C° 0.1 mm 1 mps 686 mmHg 93%
    21:00 +7°C° 0.1 mm 1 mps 686 mmHg 94%
    22:00 +5°C° 0.1 mm 1 mps 687 mmHg 95%
    23:00 +5°C° 0 mm 1 mps 686 mmHg 95%

    Tomorrow, 27 May, Wednesday

    Time Temperature Precipitation Wind Pressure Humidity
    00:00 +5°C° 0 mm 1 mps 686 mmHg 95%
    01:00 +4°C° 0 mm 1 mps 686 mmHg 95%
    02:00 +4°C° 0 mm 1 mps 686 mmHg 94%
    03:00 +4°C° 0 mm 1 mps 686 mmHg 94%
    04:00 +4°C° 0 mm 1 mps 686 mmHg 94%
    05:00 +5°C° 0 mm 1 mps 686 mmHg 90%
    06:00 +6°C° 0 mm 0 mps 686 mmHg 86%
    07:00 +8°C° 0 mm 0 mps 687 mmHg 82%
    08:00 +11°C° 0 mm 1 mps 687 mmHg 70%
    09:00 +13°C° 0 mm 1 mps 687 mmHg 58%
    10:00 +15°C° 0 mm 1 mps 688 mmHg 45%
    11:00 +16°C° 0 mm 2 mps 687 mmHg 43%
    12:00 +17°C° 0 mm 2 mps 687 mmHg 40%
    13:00 +18°C° 0 mm 2 mps 687 mmHg 37%
    14:00 +17°C° 0 mm 2 mps 686 mmHg 39%
    15:00 +17°C° 0 mm 2 mps 686 mmHg 41%
    16:00 +17°C° 0 mm 2 mps 686 mmHg 43%
    17:00 +15°C° 0 mm 2 mps 685 mmHg 53%
    18:00 +14°C° 0 mm 2 mps 685 mmHg 63%
    19:00 +12°C° 0 mm 1 mps 685 mmHg 73%
    20:00 +10°C° 0 mm 1 mps 685 mmHg 78%
    21:00 +9°C° 0 mm 1 mps 685 mmHg 83%
    22:00 +7°C° 0 mm 1 mps 685 mmHg 87%
    23:00 +7°C° 0 mm 1 mps 685 mmHg 88%

    Day after tomorrow, 28 May, Thursday

    Time Temperature Precipitation Wind Pressure Humidity
    00:00 +6°C° 0 mm 1 mps 685 mmHg 88%
    01:00 +6°C° 0 mm 1 mps 685 mmHg 88%
    02:00 +6°C° 0 mm 1 mps 684 mmHg 87%
    03:00 +6°C° 0 mm 1 mps 684 mmHg 87%
    04:00 +6°C° 0 mm 1 mps 684 mmHg 86%
    05:00 +8°C° 0 mm 1 mps 684 mmHg 79%
    06:00 +10°C° 0 mm 1 mps 684 mmHg 72%
    07:00 +11°C° 0 mm 1 mps 684 mmHg 66%
    08:00 +12°C° 0 mm 1 mps 684 mmHg 63%
    09:00 +14°C° 0 mm 2 mps 684 mmHg 61%
    10:00 +15°C° 0 mm 2 mps 685 mmHg 58%
    11:00 +13°C° 0.6 mm 2 mps 684 mmHg 70%
    12:00 +12°C° 0.6 mm 2 mps 683 mmHg 82%
    13:00 +10°C° 0.6 mm 2 mps 683 mmHg 94%
    14:00 +11°C° 0.5 mm 1 mps 683 mmHg 91%
    15:00 +12°C° 0.5 mm 1 mps 683 mmHg 87%
    16:00 +13°C° 0.5 mm 1 mps 683 mmHg 84%
    17:00 +12°C° 0.3 mm 1 mps 683 mmHg 87%
    18:00 +12°C° 0.3 mm 1 mps 683 mmHg 90%
    19:00 +11°C° 0.3 mm 1 mps 683 mmHg 93%
    20:00 +10°C° 0.1 mm 1 mps 683 mmHg 94%
    21:00 +8°C° 0.1 mm 1 mps 683 mmHg 95%
    22:00 +6°C° 0.1 mm 0 mps 683 mmHg 96%
    23:00 +6°C° 0 mm 0 mps 683 mmHg 96%

    29 May, Friday

    Time Temperature Precipitation Wind Pressure Humidity
    00:00 +5°C° 0 mm 0 mps 683 mmHg 96%
    01:00 +6°C° 0 mm 1 mps 682 mmHg 95%
    02:00 +6°C° 0 mm 1 mps 682 mmHg 95%
    03:00 +5°C° 0 mm 1 mps 682 mmHg 95%
    04:00 +5°C° 0 mm 1 mps 682 mmHg 95%
    05:00 +6°C° 0 mm 1 mps 682 mmHg 92%
    06:00 +7°C° 0 mm 0 mps 682 mmHg 89%
    07:00 +9°C° 0 mm 0 mps 682 mmHg 86%
    08:00 +11°C° 0 mm 1 mps 682 mmHg 73%
    09:00 +13°C° 0 mm 1 mps 682 mmHg 61%
    10:00 +15°C° 0 mm 2 mps 682 mmHg 49%
    11:00 +15°C° 0 mm 2 mps 682 mmHg 47%
    12:00 +16°C° 0 mm 2 mps 682 mmHg 45%
    13:00 +16°C° 0 mm 3 mps 682 mmHg 42%
    14:00 +16°C° 0 mm 3 mps 681 mmHg 44%
    15:00 +16°C° 0 mm 3 mps 681 mmHg 45%
    16:00 +16°C° 0 mm 3 mps 680 mmHg 46%
    17:00 +14°C° 0 mm 2 mps 680 mmHg 55%
    18:00 +13°C° 0 mm 2 mps 680 mmHg 64%
    19:00 +11°C° 0 mm 1 mps 680 mmHg 73%
    20:00 +9°C° 0 mm 1 mps 680 mmHg 79%
    21:00 +7°C° 0 mm 1 mps 680 mmHg 86%
    22:00 +5°C° 0 mm 0 mps 680 mmHg 92%
    23:00 +5°C° 0 mm 1 mps 680 mmHg 92%

    30 May, Saturday

    Time Temperature Precipitation Wind Pressure Humidity
    00:00 +5°C° 0 mm 1 mps 680 mmHg 93%
    01:00 +4°C° 0 mm 1 mps 680 mmHg 93%
    02:00 +3°C° 0 mm 0 mps 680 mmHg 93%
    03:00 +3°C° 0 mm 0 mps 679 mmHg 94%
    04:00 +3°C° 0 mm 0 mps 679 mmHg 94%
    05:00 +5°C° 0 mm 0 mps 680 mmHg 86%
    06:00 +7°C° 0 mm 0 mps 680 mmHg 77%
    07:00 +10°C° 0 mm 1 mps 680 mmHg 69%
    08:00 +11°C° 0 mm 1 mps 680 mmHg 60%
    09:00 +13°C° 0 mm 2 mps 680 mmHg 52%
    10:00 +14°C° 0 mm 2 mps 680 mmHg 43%
    11:00 +15°C° 0 mm 2 mps 680 mmHg 42%
    12:00 +14°C° 0 mm 3 mps 680 mmHg 42%
    13:00 +16°C° 0 mm 3 mps 680 mmHg 41%
    14:00 +16°C° 0 mm 3 mps 680 mmHg 44%
    15:00 +14°C° 0 mm 3 mps 680 mmHg 47%
    16:00 +14°C° 0 mm 3 mps 679 mmHg 50%
    17:00 +14°C° 0 mm 2 mps 679 mmHg 58%
    18:00 +12°C° 0 mm 2 mps 679 mmHg 66%
    19:00 +10°C° 0 mm 2 mps 679 mmHg 74%
    20:00 +10°C° 0 mm 1 mps 679 mmHg 81%
    21:00 +8°C° 0 mm 1 mps 679 mmHg 87%
    22:00 +5°C° 0 mm 0 mps 679 mmHg 93%
    23:00 +5°C° 0 mm 0 mps 679 mmHg 93%

    31 May, Sunday

    Time Temperature Precipitation Wind Pressure Humidity
    00:00 +5°C° 0 mm 0 mps 679 mmHg 94%
    01:00 +4°C° 0 mm 0 mps 679 mmHg 94%
    02:00 +4°C° 0 mm 0 mps 678 mmHg 94%
    03:00 +4°C° 0 mm 0 mps 678 mmHg 94%
    04:00 +4°C° 0 mm 0 mps 678 mmHg 94%
    05:00 +5°C° 0 mm 0 mps 679 mmHg 88%
    06:00 +7°C° 0 mm 0 mps 679 mmHg 82%
    07:00 +10°C° 0 mm 1 mps 679 mmHg 76%
    08:00 +11°C° 0 mm 1 mps 679 mmHg 71%
    09:00 +12°C° 0 mm 1 mps 679 mmHg 66%
    10:00 +13°C° 0 mm 2 mps 679 mmHg 61%
    11:00 +13°C° 0 mm 2 mps 679 mmHg 59%
    12:00 +14°C° 0 mm 2 mps 679 mmHg 56%
    13:00 +15°C° 0 mm 2 mps 679 mmHg 53%
    14:00 +15°C° 0 mm 2 mps 679 mmHg 53%
    15:00 +15°C° 0 mm 2 mps 679 mmHg 52%
    16:00 +15°C° 0 mm 2 mps 679 mmHg 51%
    17:00 +14°C° 0 mm 2 mps 678 mmHg 59%
    18:00 +12°C° 0 mm 2 mps 678 mmHg 68%
    19:00 +11°C° 0 mm 1 mps 678 mmHg 76%
    20:00 +10°C° 0 mm 1 mps 678 mmHg 81%
    21:00 +9°C° 0 mm 1 mps 678 mmHg 86%
    22:00 +7°C° 0 mm 0 mps 679 mmHg 90%
    23:00 +7°C° 0 mm 0 mps 679 mmHg 90%
    Show more